Regional Weather Roundup
Issued by NWS

Home | Current Version | Previous Version | Text Only | Print | Product List | Glossary On
Versions: 1 2 3 4 5 6 7 8 9 10 11 12 13 14 15 16 17 18 19 20 21 22 23 24 25 26 27
000
ASUS45 KCYS 210810
RWRWY

WYOMING REGIONAL WEATHER ROUNDUP
NATIONAL WEATHER SERVICE CHEYENNE WY
200 AM MDT MON APR 21 2014

NOTE:  "FAIR" INDICATES FEW OR NO CLOUDS BELOW 12,000 FEET
WITH NO SIGNIFICANT WEATHER AND/OR OBSTRUCTIONS TO VISIBILITY.

WYZ001-210900-
YELLOWSTONE NATIONAL PARK

CITY           SKY/WX    TMP DP  RH WIND       PRES   REMARKS
LK YELLOWSTONE   N/A     24  20  84 CALM      30.33R
W YELLOWSTONE  NOT AVBL

$$
WYZ002>013-054>058-071-098>099-210900-
NORTHERN WYOMING

CITY           SKY/WX    TMP DP  RH WIND       PRES   REMARKS
JACKSON        CLEAR     32  27  80 N6        30.29S WCI  26
CODY           CLEAR     43  18  36 NW7       30.23S
GREYBULL       PTCLDY    48  16  27 VRB5      30.19R
WORLAND        CLEAR     48  18  30 CALM      30.19S
SHERIDAN         N/A     37  25  60 E8          N/A  WCI  31
BUFFALO        PTCLDY    39  18  42 W9        30.24S WCI  33
GILLETTE       PTCLDY    31  24  75 SW5       30.21S WCI  26
HULETT         FAIR      39  23  52 SE6       30.21  WCI  35
NEWCASTLE      FAIR      37  21  52 CALM      30.21

$$
WYZ014>020-022>026-101>103-210900-
CENTRAL WYOMING

CITY           SKY/WX    TMP DP  RH WIND       PRES   REMARKS
BIG PINEY      CLEAR     24  14  65 CALM      30.29S
PINEDALE       SUNNY     27  21  80 W7        30.29S WCI  19
DUBOIS         FAIR      32  21  64 NW9       30.28R WCI  24
LANDER         CLEAR     45  22  40 W10       30.23R
RIVERTON       CLEAR     44  27  51 E7        30.24R
CASPER         CLEAR     32  26  78 N5        30.24S WCI  27
DOUGLAS        CLEAR     43  26  51 W6        30.25R

$$
WYZ021-027>030-104>119-210900-
SOUTHERN WYOMING

CITY           SKY/WX    TMP DP  RH WIND       PRES   REMARKS
EVANSTON       CLEAR     40  19  43 SE6       30.29S
FORT BRIDGER   FAIR      41  15  35 SW8       30.31S
ROCK SPRINGS   CLEAR     42   9  25 W12       30.26R
DIXON          FAIR      33  31  91 CALM      30.27F
RAWLINS        CLEAR     36  27  69 VRB3      30.24R
SARATOGA       FAIR      37  32  81 SE6       30.25S WCI  33
LARAMIE        CLEAR     39  28  64 S5        30.25R
CHEYENNE       CLEAR     43  30  60 N10       30.25R
TORRINGTON     PTCLDY    46  31  55 SW3       30.20R
PINE BLUFFS    PTSUNNY   39  34  81 NW8       30.22R WCI  34

$$



USA.gov is the U.S. government's official web portal to all federal, state and local government web resources and services.